Вернуться в каталог

STARLINK-37729

АктивенСвязьSSO
NORAD 69653·PAYLOAD·🇺🇸 United States

Запущен Jun 21, 2026 с Vandenberg Space Force Base

Loading…

Ближайшие Пролёты (ближайшие 24 часа)

TLE

СвежийSource: CelesTrak SupGP

Эпоха: Sep 14, 2026, 21:31 UTC

1 69653C 26143E   26257.89701389  .00002123  00000+0  81836-4 0  2576
2 69653  97.2837 301.3283 0001110  94.5234 258.7725 15.26402399    15

Отслеживайте STARLINK-37729 в реальном времени с AllMySat

Download on the App Store